Powrót do katalogu

CZ-4 DEB

AktywnyPO
NORAD 26273·DEBRIS·🇨🇳 China

Wystrzelony Oct 14, 1999 z Taiyuan Satellite Launch Center

Loading…

Następne Przeloty (najbliższe 24 godziny)

TLE

ŚwieżeSource: Space-Track

Epoka: Sep 14, 2026, 09:24 UTC

1 26273U 99057FK  26257.39203344  .00000789  00000-0  10374-3 0  9992
2 26273  98.7244  56.4786 0057778   5.7462  24.4316 14.82444596422612

Śledź CZ-4 DEB w czasie rzeczywistym z AllMySat

Download on the App Store